Flag for Canada Weather past 2 weeks in Cumberland County, Nova Scotia, Canada

Now
51 °F

Cool.


Feels Like: 51 °F
Forecast: 42 / 47 °F
Wind: 3 mph from Northwest

Location: Kentville

Current Time: Oct 25, 2014 at 12:18:31 AM

Latest Report: Oct 25, 2014 at 12:00 AM


Visibility: N/A

Pressure: 29.44 "Hg

Humidity: 95%

Dew point: 50 °F

Location of Cumberland CountyLocation

Historic Weather in Cumberland County — Graph

°F

Cumberland County temperature yesterday

Maximum temperature yesterday: 55 °F (at 3:00 PM)
Minimum temperature yesterday: 51 °F (at 11:00 PM)
Average temperature yesterday: 53 °F

Past Weeks' High & Low Weather Summary

 TemperatureHumidityPressure
High75 °F (Oct 15, 3:00 PM)100% (Oct 11, 11:00 PM)30.31 "Hg (Oct 11, 11:00 PM)
Low33 °F (Oct 21, 7:00 AM)39% (Oct 13, 2:00 PM)29.44 "Hg (Oct 24, 11:00 PM)
Average53 °F83%29.95 "Hg
* Reported Oct 9 11:00 PM — Oct 24 11:00 PM, Cumberland County, Weather by CustomWeather, © 2014

Note: Actual official high and low records may vary slightly from our data, if they occured in-between our weather recording intervals... More about our weather records

Advertising

Cumberland County weather history for previous 24 hours

 ConditionsComfort  
Time TempWeatherWind HumidityBarometerVisibility
11:00 PM
Oct 24
51 °FCool.5 mph96%29.44 "HgN/A
10:00 PM52 °FCool.1 mph96%29.45 "HgN/A
8:00 PM52 °FCool.3 mph97%29.45 "HgN/A
7:00 PM53 °FCool.2 mph97%29.46 "HgN/A
6:00 PM53 °FCool.5 mph96%29.46 "HgN/A
5:00 PM54 °FCool.2 mph95%29.46 "HgN/A
4:00 PM55 °FCool.5 mph94%29.46 "HgN/A
3:00 PM55 °FCool.5 mph95%29.48 "HgN/A
2:00 PM55 °FCool.6 mph96%29.50 "HgN/A
1:00 PM55 °FCool.7 mph96%29.52 "HgN/A
12:00 PM55 °FCool.7 mph96%29.54 "HgN/A
11:00 AM54 °FCool.6 mph97%29.56 "HgN/A
10:00 AM54 °FCool.6 mph97%29.56 "HgN/A
9:00 AM53 °FCool.5 mph97%29.57 "HgN/A
8:00 AM53 °FCool.3 mph97%29.58 "HgN/A
7:00 AM53 °FCool.5 mph97%29.59 "HgN/A
6:00 AM52 °FCool.6 mph97%29.59 "HgN/A
5:00 AM52 °FCool.7 mph97%29.61 "HgN/A
4:00 AM52 °FCool.9 mph97%29.62 "HgN/A
3:00 AM52 °FCool.10 mph97%29.62 "HgN/A
2:00 AM52 °FCool.7 mph91%29.69 "HgN/A
1:00 AM52 °FCool.7 mph91%29.71 "HgN/A
12:00 AM52 °FCool.8 mph90%29.74 "HgN/A
Weather by CustomWeather, © 2014

See weather overviewHow to use our weather pages